Location: Unspecified
(34.4500°N, 0.0000°E)
Time: 17:58:01
(UTC+00:00)

Envisat - Pass Details

Date: 11 March 2021
Orbit: 764 x 766 km, 98.1° (Epoch: 21 April)

Event Time Altitude Azimuth Distance (km) Brightness Sun altitude
Rises 05:04:05 0° 21° (NNE) 3,236 6.6 -15.6°
Reaches altitude 10° 05:06:31 10° 28° (NNE) 2,306 5.9 -15.1°
Maximum altitude 05:11:19 42° 99° (E) 1,089 4.4 -14.1°
Drops below altitude 10° 05:16:05 10° 169° (S) 2,291 5.5 -13.2°
Sets 05:18:29 0° 176° (S) 3,212 6.2 -12.7°
